Torna al catalogo

STARLINK-34381

AttivoComunicazioniVLEO
NORAD 64282·PAYLOAD·🇺🇸 United States

Lanciato Jun 4, 2025 da Vandenberg Space Force Base

Loading…

Prossimi Passaggi (prossime 24 ore)

TLE

AggiornatoSource: CelesTrak SupGP

Epoca: Sep 15, 2026, 03:38 UTC

1 64282C 25120AC  26258.15187500  .00033768  00000+0  99760-3 0  2580
2 64282  53.1573 315.0426 0001288  96.0037   5.5730 15.34376531    12

Traccia STARLINK-34381 in tempo reale con AllMySat

Download on the App Store